Cienfuegos, Cuba

5:47 AM CST on December 06, 2019 (GMT -0500)
Jaime Gonzalez

Weather History for MUCF - October, 2019

Change the Weather History Date:

Thursday, October 3, 2019

  Actual Average (WUND) Record (WUND)
Temperature  
Mean Temperature 80 °F -  
Max Temperature 84 °F - - (-1)
Min Temperature 75 °F - - (-1)
Cooling Degree Days 14    
Growing Degree Days 30 (Base 50)    
Moisture  
Dew Point 75 °F    
Average Humidity 93    
Maximum Humidity 100    
Minimum Humidity 70    
Precipitation  
Precipitation 0.00 in - - ()
Sea Level Pressure  
Sea Level Pressure 29.90 in    
Wind  
Wind Speed 3 mph ()    
Max Wind Speed 6 mph    
Max Gust Speed -    
Visibility 5.1 miles    
Events      
Averages and records for this station are not official NWS values.
T = Trace of Precipitation, MM = Missing Value Source: Averaged Metar Reports

Daily Weather History Graph

Daily Weather History Graph

Search for Another Location

Airport or City:

Astronomy

Oct. 03, 2019 Rise Set
Actual Time 7:13 AM CDT 7:07 PM CDT
Civil Twilight 6:51 AM CDT 7:29 PM CDT
Nautical Twilight 6:25 AM CDT 7:55 PM CDT
Astronomical Twilight 5:59 AM CDT 8:21 PM CDT
Moon 12:09 PM CDT (10/3) 11:20 PM CDT (10/3)
Length of Visible Light 12h 38m
Length of Day
11h 53m
Waxing Crescent, 29% of the Moon is Illuminated
Oct 3
Waxing Crescent
Oct 5
First Quarter
Oct 13
Full
Oct 21
Last Quarter
Oct 27
New

Hourly Weather History & Observations

Time (CDT) Temp. Heat Index Dew Point Humidity Pressure Visibility Wind Dir Wind Speed Gust Speed Precip Events Conditions
12:59 AM 75.2 °F - 73.4 °F 94% 29.86 in - NE 4.6 mph - N/A   Unknown
1:58 AM 75.2 °F - 73.4 °F 94% 29.86 in - East 3.5 mph - N/A   Unknown
2:59 AM 75.2 °F - 73.4 °F 94% 29.86 in - NE 4.6 mph - N/A   Unknown
3:58 AM 75.2 °F - 73.4 °F 94% 29.86 in - ENE 4.6 mph - N/A   Unknown
4:58 AM 75.2 °F - 73.4 °F 94% 29.83 in - ENE 5.8 mph - N/A   Unknown
5:58 AM 75.2 °F - 73.4 °F 94% 29.86 in - NE 3.5 mph - N/A   Unknown
6:59 AM 75.2 °F - 73.4 °F 94% 29.86 in - East 3.5 mph - N/A   Unknown
7:59 AM 75.2 °F - 75.2 °F 100% 29.89 in - NE 3.5 mph - N/A   Unknown
8:52 AM 75.2 °F - 75.2 °F 100% 29.92 in 5.0 mi Variable 1.2 mph - N/A   Mostly Cloudy
9:50 AM 77.0 °F - 75.2 °F 94% 29.95 in 5.0 mi Variable 2.3 mph - N/A   Mostly Cloudy
10:55 AM 78.8 °F - 77.0 °F 94% 29.95 in 5.0 mi South 5.8 mph - N/A   Mostly Cloudy
11:50 AM 77.0 °F - 77.0 °F 100% 29.95 in 5.0 mi ESE 5.8 mph - N/A   Mostly Cloudy
12:50 PM 78.8 °F - 75.2 °F 89% 29.92 in 5.0 mi Variable 2.3 mph - N/A   Mostly Cloudy
1:50 PM 78.8 °F - 75.2 °F 89% 29.92 in 5.0 mi South 3.5 mph - N/A   Mostly Cloudy
2:50 PM 80.6 °F 87.1 °F 77.0 °F 89% 29.89 in 5.6 mi Variable 2.3 mph - N/A   Mostly Cloudy
4:59 PM 84.2 °F 90.9 °F 73.4 °F 70% 29.89 in - Variable 2.3 mph - N/A   Unknown
5:59 PM 82.4 °F 89.5 °F 75.2 °F 79% 29.89 in - South 1.2 mph - N/A   Unknown
6:58 PM 80.6 °F 87.1 °F 77.0 °F 89% 29.89 in - ESE 1.2 mph - N/A   Unknown
7:59 PM 77.0 °F - 77.0 °F 100% 29.89 in - East 3.5 mph - N/A   Unknown
8:58 PM 77.0 °F - 75.2 °F 94% 29.92 in - East 3.5 mph - N/A   Unknown
9:59 PM 75.2 °F - 75.2 °F 100% 29.95 in - Variable 2.3 mph - N/A   Unknown
10:59 PM 77.0 °F - 75.2 °F 94% 29.95 in - NE 2.3 mph - N/A   Unknown
11:59 PM 75.2 °F - 75.2 °F 100% 29.95 in - Variable 1.2 mph - N/A   Unknown